When you browse on this site, cookies collect data to enhance your experience and personalize the content and advertising you see.
Visit our Privacy Policy to learn more. By continuing to use the site, you agree to this use of cookies and data.
EN

Hourly Weather Nuwejba

Today, 7 July, Tuesday

Time Temperature Precipitation Wind Pressure Humidity
00:00 +21°C° 0 mm 2 mps 685 mmHg 47%
01:00 +20°C° 0 mm 2 mps 685 mmHg 48%
02:00 +20°C° 0 mm 2 mps 685 mmHg 49%
03:00 +20°C° 0 mm 2 mps 685 mmHg 49%
04:00 +19°C° 0 mm 2 mps 685 mmHg 49%
05:00 +19°C° 0 mm 2 mps 685 mmHg 49%
06:00 +23°C° 0 mm 2 mps 686 mmHg 39%
07:00 +26°C° 0 mm 3 mps 687 mmHg 29%
08:00 +29°C° 0 mm 3 mps 687 mmHg 19%
09:00 +31°C° 0 mm 3 mps 688 mmHg 16%
10:00 +33°C° 0 mm 3 mps 688 mmHg 13%
11:00 +35°C° 0 mm 3 mps 688 mmHg 10%
12:00 +36°C° 0 mm 3 mps 688 mmHg 9%
13:00 +37°C° 0 mm 4 mps 688 mmHg 9%
14:00 +37°C° 0 mm 4 mps 688 mmHg 8%
15:00 +37°C° 0 mm 4 mps 688 mmHg 9%
16:00 +37°C° 0 mm 5 mps 687 mmHg 9%
17:00 +36°C° 0 mm 5 mps 687 mmHg 10%
18:00 +33°C° 0 mm 5 mps 687 mmHg 15%
19:00 +30°C° 0 mm 5 mps 687 mmHg 20%
20:00 +27°C° 0 mm 4 mps 687 mmHg 25%
21:00 +25°C° 0 mm 3 mps 687 mmHg 29%
22:00 +24°C° 0 mm 2 mps 687 mmHg 33%
23:00 +22°C° 0 mm 1 mps 686 mmHg 37%

Tomorrow, 8 July, Wednesday

Time Temperature Precipitation Wind Pressure Humidity
00:00 +22°C° 0 mm 1 mps 686 mmHg 37%
01:00 +22°C° 0 mm 1 mps 686 mmHg 37%
02:00 +21°C° 0 mm 1 mps 686 mmHg 36%
03:00 +21°C° 0 mm 1 mps 686 mmHg 36%
04:00 +21°C° 0 mm 1 mps 686 mmHg 36%
05:00 +21°C° 0 mm 1 mps 687 mmHg 36%
06:00 +24°C° 0 mm 2 mps 687 mmHg 31%
07:00 +26°C° 0 mm 2 mps 688 mmHg 27%
08:00 +29°C° 0 mm 2 mps 689 mmHg 23%
09:00 +31°C° 0 mm 3 mps 689 mmHg 20%
10:00 +33°C° 0 mm 3 mps 689 mmHg 18%
11:00 +35°C° 0 mm 3 mps 689 mmHg 16%
12:00 +36°C° 0 mm 3 mps 689 mmHg 14%
13:00 +37°C° 0 mm 3 mps 689 mmHg 13%
14:00 +38°C° 0 mm 4 mps 689 mmHg 12%
15:00 +37°C° 0 mm 3 mps 688 mmHg 12%
16:00 +37°C° 0 mm 3 mps 688 mmHg 12%
17:00 +36°C° 0 mm 3 mps 688 mmHg 12%
18:00 +34°C° 0 mm 3 mps 688 mmHg 20%
19:00 +30°C° 0 mm 4 mps 688 mmHg 27%
20:00 +27°C° 0 mm 4 mps 688 mmHg 34%
21:00 +26°C° 0 mm 4 mps 688 mmHg 41%
22:00 +25°C° 0 mm 3 mps 688 mmHg 47%
23:00 +24°C° 0 mm 3 mps 688 mmHg 54%

Day after tomorrow, 9 July, Thursday

Time Temperature Precipitation Wind Pressure Humidity
00:00 +22°C° 0 mm 3 mps 688 mmHg 59%
01:00 +21°C° 0 mm 3 mps 687 mmHg 65%
02:00 +20°C° 0 mm 2 mps 687 mmHg 70%
03:00 +20°C° 0 mm 2 mps 687 mmHg 71%
04:00 +20°C° 0 mm 2 mps 687 mmHg 71%
05:00 +19°C° 0 mm 2 mps 687 mmHg 72%
06:00 +23°C° 0 mm 2 mps 687 mmHg 61%
07:00 +25°C° 0 mm 2 mps 688 mmHg 50%
08:00 +28°C° 0 mm 2 mps 689 mmHg 39%
09:00 +30°C° 0 mm 2 mps 689 mmHg 34%
10:00 +31°C° 0 mm 2 mps 689 mmHg 28%
11:00 +34°C° 0 mm 2 mps 689 mmHg 23%
12:00 +35°C° 0 mm 2 mps 688 mmHg 21%
13:00 +36°C° 0 mm 3 mps 688 mmHg 18%
14:00 +37°C° 0 mm 3 mps 688 mmHg 16%
15:00 +37°C° 0 mm 3 mps 688 mmHg 16%
16:00 +37°C° 0 mm 4 mps 687 mmHg 17%
17:00 +37°C° 0 mm 4 mps 687 mmHg 17%
18:00 +34°C° 0 mm 5 mps 687 mmHg 30%
19:00 +30°C° 0 mm 6 mps 687 mmHg 43%
20:00 +26°C° 0 mm 7 mps 687 mmHg 56%
21:00 +26°C° 0 mm 5 mps 687 mmHg 61%
22:00 +25°C° 0 mm 4 mps 687 mmHg 67%
23:00 +24°C° 0 mm 2 mps 687 mmHg 72%

10 July, Friday

Time Temperature Precipitation Wind Pressure Humidity
00:00 +23°C° 0 mm 2 mps 687 mmHg 71%
01:00 +23°C° 0 mm 2 mps 686 mmHg 69%
02:00 +23°C° 0 mm 2 mps 686 mmHg 67%
03:00 +21°C° 0 mm 2 mps 686 mmHg 65%
04:00 +22°C° 0 mm 1 mps 686 mmHg 63%
05:00 +22°C° 0 mm 1 mps 686 mmHg 61%
06:00 +24°C° 0 mm 2 mps 687 mmHg 53%
07:00 +26°C° 0 mm 2 mps 687 mmHg 45%
08:00 +29°C° 0 mm 3 mps 688 mmHg 37%
09:00 +31°C° 0 mm 3 mps 688 mmHg 32%
10:00 +34°C° 0 mm 3 mps 688 mmHg 27%
11:00 +35°C° 0 mm 3 mps 688 mmHg 22%
12:00 +37°C° 0 mm 3 mps 688 mmHg 19%
13:00 +38°C° 0 mm 3 mps 688 mmHg 16%
14:00 +39°C° 0 mm 3 mps 688 mmHg 12%
15:00 +39°C° 0 mm 3 mps 687 mmHg 12%
16:00 +39°C° 0 mm 3 mps 687 mmHg 12%
17:00 +38°C° 0 mm 4 mps 687 mmHg 12%
18:00 +35°C° 0 mm 4 mps 687 mmHg 26%
19:00 +32°C° 0 mm 4 mps 687 mmHg 40%
20:00 +27°C° 0 mm 5 mps 687 mmHg 54%
21:00 +26°C° 0 mm 4 mps 687 mmHg 57%
22:00 +25°C° 0 mm 3 mps 687 mmHg 60%
23:00 +24°C° 0 mm 2 mps 687 mmHg 64%

11 July, Saturday

Time Temperature Precipitation Wind Pressure Humidity
00:00 +24°C° 0 mm 2 mps 687 mmHg 60%
01:00 +24°C° 0 mm 2 mps 687 mmHg 56%
02:00 +24°C° 0 mm 2 mps 687 mmHg 52%
03:00 +23°C° 0 mm 2 mps 687 mmHg 51%
04:00 +23°C° 0 mm 2 mps 687 mmHg 50%
05:00 +23°C° 0 mm 2 mps 687 mmHg 48%
06:00 +25°C° 0 mm 3 mps 687 mmHg 41%
07:00 +28°C° 0 mm 3 mps 688 mmHg 33%
08:00 +32°C° 0 mm 4 mps 688 mmHg 26%
09:00 +33°C° 0 mm 5 mps 689 mmHg 24%
10:00 +35°C° 0 mm 5 mps 689 mmHg 22%
11:00 +38°C° 0 mm 6 mps 689 mmHg 20%
12:00 +38°C° 0 mm 6 mps 688 mmHg 20%
13:00 +39°C° 0 mm 6 mps 688 mmHg 19%
14:00 +40°C° 0 mm 6 mps 688 mmHg 19%
15:00 +39°C° 0 mm 7 mps 687 mmHg 20%
16:00 +38°C° 0 mm 7 mps 687 mmHg 22%
17:00 +38°C° 0 mm 8 mps 687 mmHg 23%
18:00 +34°C° 0 mm 7 mps 687 mmHg 29%
19:00 +32°C° 0 mm 7 mps 687 mmHg 36%
20:00 +28°C° 0 mm 6 mps 687 mmHg 42%
21:00 +27°C° 0 mm 5 mps 687 mmHg 48%
22:00 +26°C° 0 mm 4 mps 687 mmHg 54%
23:00 +24°C° 0 mm 3 mps 687 mmHg 60%

12 July, Sunday

Time Temperature Precipitation Wind Pressure Humidity
00:00 +24°C° 0 mm 3 mps 686 mmHg 61%
01:00 +24°C° 0 mm 3 mps 686 mmHg 63%
02:00 +22°C° 0 mm 3 mps 686 mmHg 65%
03:00 +22°C° 0 mm 3 mps 686 mmHg 66%
04:00 +21°C° 0 mm 3 mps 686 mmHg 67%
05:00 +21°C° 0 mm 3 mps 686 mmHg 68%
06:00 +24°C° 0 mm 3 mps 686 mmHg 58%
07:00 +27°C° 0 mm 4 mps 687 mmHg 48%
08:00 +29°C° 0 mm 5 mps 687 mmHg 38%
09:00 +32°C° 0 mm 6 mps 687 mmHg 34%
10:00 +34°C° 0 mm 6 mps 687 mmHg 30%
11:00 +36°C° 0 mm 7 mps 688 mmHg 26%
12:00 +38°C° 0 mm 7 mps 687 mmHg 25%
13:00 +39°C° 0 mm 7 mps 687 mmHg 24%
14:00 +39°C° 0 mm 7 mps 687 mmHg 23%
15:00 +39°C° 0 mm 8 mps 686 mmHg 24%
16:00 +38°C° 0 mm 8 mps 686 mmHg 26%
17:00 +38°C° 0 mm 9 mps 686 mmHg 27%
18:00 +34°C° 0 mm 9 mps 686 mmHg 33%
19:00 +32°C° 0 mm 8 mps 686 mmHg 40%
20:00 +28°C° 0 mm 7 mps 686 mmHg 46%
21:00 +27°C° 0 mm 6 mps 686 mmHg 49%
22:00 +26°C° 0 mm 5 mps 686 mmHg 53%
23:00 +25°C° 0 mm 4 mps 685 mmHg 56%
Show more